Location: Saddleback Butte
(34.6776°N, 117.8050°W)
Time: 07:54:17
(UTC-07:00)

Iridium 35 - Visible Passes

Search period start: 25 May 2016 00:00
Search period end: 04 June 2016 00:00
Orbit: 776 x 779 km, 86.4° (Epoch: 24 May)

Date Brightness Start Highest point End Pass type
(mag) Time Alt. Az. Time Alt. Az. Time Alt. Az.
25 May 6.0 03:56:43 10° NNE 04:01:43 45° E 04:06:41 10° SSE visible
26 May 7.1 03:23:52 10° NNE 03:28:02 24° E 03:32:11 10° SE visible
26 May 5.8 05:04:08 10° NNW 05:08:43 32° W 05:13:16 10° SW visible
27 May 7.7 02:52:10 10° NE 02:54:13 12° ENE 02:56:17 10° E visible
27 May 5.1 04:30:12 10° N 04:35:21 62° W 04:40:28 10° SSW visible
28 May 5.3 03:56:39 10° N 04:01:51 68° E 04:07:02 10° S visible
29 May 6.4 03:23:30 10° NNE 03:28:16 35° E 03:32:59 10° SSE visible
29 May 6.3 05:04:48 10° NW 05:08:41 22° W 05:12:33 10° SW visible
30 May 7.4 02:50:56 10° NE 02:54:31 18° ENE 02:58:06 10° ESE visible
30 May 5.5 04:30:31 10° NNW 04:35:22 41° W 04:39:58 11° SSW visible
31 May 4.9 03:56:44 10° N 04:01:58 81° W 04:06:02 17° S visible
01 Jun 5.7 03:23:20 10° N 03:28:26 52° E 03:32:08 18° SSE visible
01 Jun 6.8 05:05:52 10° NW 05:08:36 14° W 05:11:20 10° WSW visible
02 Jun 6.8 02:50:22 10° NNE 02:54:47 27° E 02:58:16 14° SE visible
02 Jun 6.0 04:31:00 10° NNW 04:35:22 28° W 04:38:42 15° SW visible
03 Jun 7.5 02:18:15 10° NE 02:21:00 14° ENE 02:23:44 10° ESE visible
03 Jun 5.2 03:56:57 10° NNW 04:02:01 53° W 04:04:52 25° SSW visible
